Regional Weather Roundup
Issued by NWS

Home | Current Version | Previous Version | Graphics & Text | Print | Product List | Glossary On
Versions: 1 2 3 4 5 6 7 8 9 10 11 12 13 14 15 16 17 18 19 20 21 22 23 24 25 26 27 28 29 30 31 32 33 34 35 36 37 38 39 40 41 42 43 44 45 46 47 48 49 50
000
ASUS45 KTFX 051110
RWRMT
MONTANA REGIONAL WEATHER ROUNDUP
NATIONAL WEATHER SERVICE GREAT FALLS MT
500 AM MDT SAT SEP 05 2015

NOTE: "FAIR" INDICATES FEW OR NO CLOUDS BELOW 12000 FEET WITH NO
SIGNIFICANT WEATHER AND/OR OBSTRUCTIONS TO VISIBILITY.

MTZ001>007-043-051200-
WEST OF THE DIVIDE

CITY           SKY/WX    TMP DP  RH WIND       PRES   REMARKS
KALISPELL      CLOUDY    51  40  65 N20       29.84S
MISSOULA       RAIN      51  46  83 E16       29.86R
BUTTE          LGT RAIN  41  40  96 CALM      29.91S
MULLAN PASS    LGT RAIN  38  38 100 VRB6      29.84F VSB 1/2
DEER LODGE       N/A     46  45  93 NW7       29.92
EUREKA           N/A     52  37  58 NW10      29.89S
HAMILTON         N/A     50  48  93 S6        29.85R
LIBBY            N/A     48  46  93 SE3       29.91R
$$

MTZ008-052>055-051200-
SOUTHWEST MONTANA

CITY           SKY/WX    TMP DP  RH WIND       PRES   REMARKS
BOZEMAN        MOCLDY    47  46  97 S7        29.86R
DILLON         CLOUDY    49  44  83 SE3       29.88R
W YELLOWSTONE  PTCLDY    39  39 100 SW3       29.93R
$$

MTZ009-010-012-014-046-048-049-054-051200-
EAST SLOPES AND CENTRAL MONTANA

CITY           SKY/WX    TMP DP  RH WIND       PRES   REMARKS
CUT BANK       LGT RAIN  44  43  96 N10       29.97F
GREAT FALLS    FOG       48  47  96 NE14      29.91F VSB 1/4
MALMSTROM AFB  CLOUDY    48  48 100 NE14      29.92F
HELENA         CLOUDY    48  45  89 NW8       29.88F
CONRAD           N/A     48  48 100 N7        29.98F
$$

MTZ011-013-016-021-045-047-050-051-051200-
NORTH CENTRAL MONTANA

CITY           SKY/WX    TMP DP  RH WIND       PRES   REMARKS
HAVRE          CLOUDY    48  46  93 NE14      29.96S
LEWISTOWN      CLOUDY    49  46  90 E14       29.92R
N BAR RANCH    CLOUDY    46  46 100 NE5       29.96R
CHINOOK          N/A     48  48 100 N5        29.96F
FORT BENTON      N/A     50  48  93 N7        29.94F
$$

MTZ017>020-022>027-061-062-051200-
NORTHEAST MONTANA

CITY           SKY/WX    TMP DP  RH WIND       PRES   REMARKS
GLASGOW        CLOUDY    52  48  86 NE13      29.91R
JORDAN           N/A     54  50  86 N7        29.91R
SIDNEY         CLOUDY    59  55  88 N14G20      N/A
WOLF POINT     CLOUDY    57  48  72 NE20G26   29.90F
MALTA            N/A     51  45  80 N6        29.91F
PLENTYWOOD       N/A     54  52  94 N7        29.94R
POPLAR           N/A     54  52  94 N14       29.90F
$$

MTZ028>42-056>058-051200-
SOUTHCENTRAL AND SOUTHEAST MONTANA

CITY           SKY/WX    TMP DP  RH WIND       PRES   REMARKS
BAKER          MOCLDY    61  55  81 W3        29.83R
BILLINGS       CLOUDY    53  48  83 N5        29.93R
LIVINGSTON     CLOUDY    52  47  83 E15       29.87S
MILES CITY     CLOUDY    62  58  86 NE13      29.83F
EKALAKA          N/A     65  57  75 SE5       29.84R
FORSYTH          N/A     59  55  88 N7        29.85S
LAUREL           N/A     53  46  77 CALM      29.93R
$$

REGIONAL REPORTS...DAKOTAS

CITY           SKY/WX    TMP DP  RH WIND       PRES   REMARKS
WILLISTON      CLOUDY    58  56  93 NE10      29.87F
MINOT          LGT RAIN  60  58  92 N12       29.93S
DICKINSON      CLOUDY    62  60  93 E16       29.82F
CROSBY         CLOUDY    54  54 100 NE13      29.91F
BISMARCK       CLOUDY    69  68  96 NE7       29.85S FOG
GRAND FORKS    CLOUDY    64  63  96 N12       29.88R
FARGO          PTCLDY    68  66  93 NE7       29.84S
BUFFALO SD       N/A     64  61  90 E15       29.77R
RAPID CITY     CLOUDY    67  59  75 NE8       29.83R
$$

REGIONAL REPORTS...WYOMING/IDAHO/WASHINGTON

CITY           SKY/WX    TMP DP  RH WIND       PRES   REMARKS
GILLETTE       PTCLDY    55  52  89 SW3       29.90R
SHERIDAN       CLEAR     51  46  83 W8        29.89S
BUFFALO WY     CLEAR     52  48  86 N7        29.92S
CODY           PTCLDY    48  45  87 E8        29.95R
YELLOWSTONE LA   N/A     46  43  89 CALM      30.03F
IDAHO FALLS    CLEAR     50  36  58 S18G25    29.90R
SALMON         CLOUDY    48  46  93 CALM      29.88R
BOISE          CLEAR     48  40  73 CALM      29.94R
SPOKANE        LGT RAIN  49  46  90 S8        29.82S
$$

REGIONAL REPORTS...ALBERTA

CITY           SKY/WX    TMP DP  RH WIND       PRES   REMARKS
EDMONTON       MOCLDY    39  36  87 N3        30.16F
CALGARY        LGT RAIN  43  41  93 N9        30.12S FOG
LETHBRIDGE     LGT RAIN  45  43  93 NE16      30.02S
MEDICINE HAT   LGT RAIN  48  46  93 NE12      30.03F
WATERTON GATE    N/A     39  36  87 NW3         N/A
CARDSTON         N/A     43  41  93 NW5         N/A
MILK RIVER       N/A     46  46 100 E9          N/A
ONEFOUR          N/A     45  43  93 NE9         N/A
$$

REGIONAL REPORTS...SASKATCHEWAN

CITY           SKY/WX    TMP DP  RH WIND       PRES   REMARKS
SWIFT CURRENT  CLOUDY    48  48 100 NE12      30.03F
REGINA         LGT RAIN  50  48  93 N20       30.02F
SASKATOON      CLOUDY    48  45  87 NE9       30.11F
CYPRESS HILLS    N/A     41  39  93 E7          N/A
VAL MARIE        N/A     48  46  93 NE16        N/A
ROCKGLEN         N/A     48  48 100 N8          N/A
ASSINIBOIA       N/A     32  32 100 N3          N/A
$$


USA.gov is the U.S. government's official web portal to all federal, state and local government web resources and services.